[Date Prev][Date Next][Thread Prev][Thread Next] - [Date Index][Thread Index][Author Index]
2 Line ISS Keps 3-19
- Subject: [sarex] 2 Line ISS Keps 3-19
- From: "Dave Larsen Ph.D." <doc@xxxxxxxxxxx>
- Date: Wed, 19 Mar 2003 00:39:33 -0800
ISS
1 25544U 98067A 03078.17835001 .00024404 00000-0 31346-3 0 7962
2 25544 51.6350 112.3117 0008039 346.2861 123.8251 15.58933588246962
----
Via the sarex mailing list at AMSAT.ORG courtesy of AMSAT-NA.
To unsubscribe, send "unsubscribe sarex" to Majordomo@amsat.org
AMSAT Home